Regional Weather Roundup
Issued by NWS

Home | Current Version | Previous Version | Text Only | Print | Product List | Glossary Off
Versions: 1 2 3 4 5 6 7 8 9 10 11 12 13 14 15 16 17 18 19 20 21 22 23 24 25 26 27 28 29 30 31 32 33 34 35 36 37 38 39 40 41 42 43 44 45 46 47 48 49 50

000
ASUS43 KLOT 110258
RWRIL

ILLINOIS REGIONAL WEATHER ROUNDUP
NATIONAL WEATHER SERVICE CHICAGO/ROMEOVILLE IL
1000 PM CDT THU JUL 10 2014

NOTE: "FAIR" INDICATES FEW OR NO CLOUDS BELOW 12,000 FEET WITH NO
SIGNIFICANT WEATHER AND/OR OBSTRUCTIONS TO VISIBILITY.

* THESE STATIONS ARE NOT UNDER NWS QUALITY CONTROL. THEY ALSO MAY NOT
  REPORT WEATHER SUCH AS PRECIPITATION OR FOG.

ILZ001-002-007-009-015-016-024-110400-
NORTHWEST ILLINOIS

CITY           SKY/WX    TMP DP  RH WIND       PRES   REMARKS
MOLINE         PTCLDY    68  60  75 S7        30.13R
$$

ILZ003-004-008-010-011-017-018-110400-
NORTH CENTRAL ILLINOIS

CITY           SKY/WX    TMP DP  RH WIND       PRES   REMARKS
ROCKFORD       NOT AVBL
$$

ILZ005-006-012>014-019>023-110400-
NORTHEAST ILLINOIS

CITY           SKY/WX    TMP DP  RH WIND       PRES   REMARKS
CHICAGO-OHARE  PTCLDY    67  47  48 SE7       30.17R
CHICAGO-MIDWAY CLEAR     71  51  49 SE5       30.17R
AURORA         CLEAR     65  55  70 SE6       30.16R
WAUKEGAN       CLEAR     60  54  80 CALM      30.17R
DUPAGE AIRPORT CLEAR     66  52  60 E5        30.16R
WHEELING       CLEAR     68  51  54 CALM      30.18R
NORTHERLY ISL    N/A     66  58  75 SE2         N/A
$$

LMZ740>746-110400-
SOUTHERN LAKE MICHIGAN

STATION/POSITION SKY/WX   TEMP    WIND        PRES    VSBY  WAVE
                          AIR SEA DIR/SP/G                  HT/PER
                          (F)     (DEG/KT/KT) (MB)    (MI)  (FT/S)
SOUTHERN BUOY              63 61  140/  4/  4 1021.2R         0
WAUKEGAN HARBOR            64     190/  5/  6 1022.7R
HARRISON CRIB              68     140/  6/  7   N/A
BURNHAM HARBOR             66     110/  2/  5   N/A
CALUMET HARBOR             69      90/  4/  5 1022.3R
MICHIGAN CITY              67      70/  5/  6   N/A
$$

ILZ025>027-034>036-040-047-049-050-058-095>099-110400-
WEST-CENTRAL ILLINOIS

CITY           SKY/WX    TMP DP  RH WIND       PRES   REMARKS
$$

ILZ028>032-037-038-041>044-048-051>054-059>061-110400-
CENTRAL ILLINOIS

CITY           SKY/WX    TMP DP  RH WIND       PRES   REMARKS
PEORIA         NOT AVBL
SPRINGFIELD    CLEAR     64  59  83 CALM      30.15R
TAYLORVILLE    NOT AVBL
$$

ILZ033-039-045-046-055>057-062-063-110400-
EAST-CENTRAL ILLINOIS

CITY           SKY/WX    TMP DP  RH WIND       PRES   REMARKS
CHAMPAIGN      CLEAR     64  57  78 E6        30.17R
MATTOON        CLEAR     66  56  70 CALM      30.15R
$$

ILZ079-100>102-110400-
SOUTHWEST ILLINOIS

CITY           SKY/WX    TMP DP  RH WIND       PRES   REMARKS
ALTON          CLEAR     70  61  73 CALM      30.13R
CAHOKIA*       CLEAR     67  61  81 CALM      30.12R
$$

ILZ064>066-069>071-074>076-080>082-084>086-088>090-092>094-110400-
SOUTH-CENTRAL ILLINOIS

CITY           SKY/WX    TMP DP  RH WIND       PRES   REMARKS
CARBONDALE     CLEAR     68  64  87 MISG      30.12R
$$

ILZ067-068-072-073-078-083-087-091-110400-
SOUTHEAST ILLINOIS

CITY           SKY/WX    TMP DP  RH WIND       PRES   REMARKS
$$

ABBREVIATIONS USED IN REMARKS
   TC - TEMPERATURE IN CELSIUS
  WCI - WIND CHILL INDEX
   HX - HEAT INDEX
  VSB - VISIBILITY
$$



USA.gov is the U.S. government's official web portal to all federal, state and local government web resources and services.